Theta_e
324 323 321 318 305 304 300 302 306 305 306 310 316 313 316 319 317 309 330 337 339 339 344 345 347 347 345 346 347 348 346 346 346 345 344 344 346 346 346 345 343 339 338 338 337 338 337 337 338
317 320 319 314 303 299 298 304 305 309 312 316 316 315 314 316 325 325 327 338 340 340 342 342 344 346 345 346 347 347 347 345 344 344 342 343 345 345 340 343 343 340 337 337 337 337 336 336 337
323 318 312 309 304 298 298 304 309 311 312 312 311 316 318 319 325 326 333 339 339 339 340 342 344 345 345 345 343 344 343 344 342 342 339 340 339 344 344 344 343 340 336 337 336 336 336 336 335
317 316 312 304 303 300 302 307 311 308 308 312 311 314 323 328 327 331 335 339 338 337 340 341 343 345 345 345 342 340 342 339 341 341 339 340 342 344 342 341 342 339 337 336 335 335 335 334 334
319 312 304 302 304 302 304 310 312 307 307 309 311 314 318 328 333 334 333 338 336 336 337 339 343 344 344 343 342 339 339 339 337 338 339 338 341 341 341 339 340 338 336 335 334 333 334 331 329
313 311 302 299 303 303 305 309 310 306 308 308 308 317 320 330 331 333 334 336 337 335 336 337 335 339 342 343 341 340 340 340 335 336 337 335 336 335 338 338 338 337 335 335 333 332 330 328 327
312 308 303 304 304 301 305 310 307 306 307 307 313 314 322 327 331 333 334 336 336 337 335 334 335 335 335 338 337 337 337 337 335 335 336 335 333 337 337 338 337 335 335 334 332 331 330 328 327
312 311 303 302 302 301 307 309 309 308 308 314 316 309 316 327 332 332 332 333 334 335 335 332 332 335 335 334 332 333 334 335 335 333 332 330 329 330 333 332 335 334 333 333 332 330 329 328 326
317 305 301 302 301 303 308 306 307 308 311 311 313 316 326 330 331 331 329 331 330 332 333 333 331 329 333 334 329 329 330 330 330 329 327 325 326 328 330 329 333 332 332 330 329 328 328 327 325
309 303 306 310 308 304 307 307 306 305 308 308 313 323 330 329 328 327 325 325 325 325 332 334 332 328 328 333 331 331 329 328 328 328 325 327 325 327 327 324 327 329 329 329 327 327 327 324 320
310 305 312 308 305 305 307 305 305 304 304 307 310 321 326 326 326 327 325 326 325 326 327 334 333 331 328 327 328 329 328 327 328 327 328 327 325 323 324 322 322 321 320 321 324 322 322 321 321
308 311 311 307 306 304 303 305 302 303 302 307 310 323 326 324 325 325 325 326 324 326 327 332 334 333 329 328 328 327 327 327 326 327 328 327 324 324 322 322 322 321 320 319 320 320 319 319 319
310 312 309 306 305 304 306 302 301 301 304 307 308 322 324 324 325 327 327 326 324 325 326 328 332 333 331 329 328 327 326 325 325 325 327 328 326 324 323 322 321 320 320 320 318 319 318 318 318
311 310 308 305 304 304 303 304 303 307 305 305 307 314 321 323 326 326 326 324 324 324 326 328 331 332 332 329 328 327 326 325 324 324 325 326 326 325 323 322 321 319 319 319 319 318 318 318 318
312 304 304 303 303 303 304 301 302 307 306 306 307 307 314 320 324 325 325 323 325 324 326 327 328 332 331 331 329 328 328 326 325 324 324 323 325 325 323 322 321 320 320 321 321 320 319 318 318
305 306 298 304 305 303 304 298 308 310 307 307 306 305 310 315 320 323 324 324 325 324 325 326 330 329 330 330 330 329 327 327 326 325 325 324 325 325 323 322 322 322 322 321 320 320 319 318 318
303 297 300 304 307 302 301 298 306 309 308 307 305 307 307 311 316 320 324 325 325 325 325 324 327 327 328 328 328 328 328 327 327 326 325 325 326 326 324 323 323 323 322 321 321 320 319 318 318
297 299 302 301 303 303 297 298 303 300 301 302 304 307 308 308 313 318 322 324 326 325 326 325 326 327 327 328 328 326 325 326 326 327 325 326 327 327 325 325 324 322 322 322 321 320 320 318 317
303 301 301 303 304 300 299 299 303 305 301 300 302 303 303 305 310 315 320 322 324 326 327 327 324 325 327 326 325 324 323 324 325 326 327 326 326 327 325 324 322 321 320 323 323 320 319 318 317
301 299 298 301 301 299 298 298 302 305 305 305 304 304 306 307 305 311 316 319 323 324 326 327 327 325 326 326 327 326 325 326 326 326 327 327 327 327 326 323 322 319 319 321 321 320 318 316 316
299 297 297 297 298 296 294 292 296 301 304 305 307 308 309 308 308 306 312 318 321 323 325 327 328 327 327 326 326 325 324 324 324 325 326 327 327 328 327 325 323 321 320 319 321 318 316 314 315
296 302 301 296 293 288 293 283 292 296 298 302 304 302 305 307 309 310 308 314 319 322 324 327 329 329 329 327 325 323 322 321 324 326 327 327 327 328 327 326 324 323 321 319 320 319 318 318 315
298 302 298 295 292 291 291 286 290 295 294 298 300 302 303 304 306 307 309 313 318 321 324 325 328 329 330 329 327 325 323 324 325 327 327 327 327 328 328 326 325 324 323 321 320 317 317 318 318
301 298 296 292 290 284 290 289 288 292 296 297 299 300 301 302 303 305 308 307 313 317 320 324 325 327 329 330 329 327 325 325 326 327 327 328 328 327 327 328 326 326 325 323 322 319 319 319 318
297 292 282 282 281 281 288 287 291 296 297 296 296 297 297 297 300 301 302 304 304 313 318 322 323 324 326 328 329 328 328 327 326 327 327 327 327 327 327 327 326 326 326 325 323 320 319 318 318
294 292 283 278 279 281 284 282 289 298 297 297 300 298 297 296 298 297 297 300 302 305 311 319 320 323 324 326 328 330 330 329 329 328 329 329 329 328 328 327 327 327 327 324 322 320 318 317 316
292 290 293 283 277 279 283 288 294 296 296 295 295 296 297 298 298 301 302 298 298 301 304 310 315 317 320 323 325 327 329 329 329 329 329 329 330 329 328 327 326 326 324 322 320 318 313 314 313
293 295 286 287 278 275 282 283 286 291 294 296 296 296 297 297 297 297 297 298 299 298 300 302 304 306 310 316 320 324 326 328 329 329 327 328 329 326 325 324 324 321 319 316 313 309 308 308 307
289 289 290 291 286 279 278 283 293 294 296 295 295 294 295 295 295 296 297 298 299 300 300 300 300 301 302 304 309 316 323 325 326 327 326 327 325 326 324 321 319 319 315 312 310 307 306 304 300
293 291 292 286 283 285 284 283 294 293 295 294 293 295 295 294 295 296 298 298 298 299 299 300 300 301 302 302 304 307 312 316 319 324 325 326 323 318 317 317 315 312 310 308 306 303 303 300 297
Wind_Speed
11 6 4 3 1 3 4 5 7 7 5 2 7 6 12 10 6 7 7 10 16 11 11 10 11 12 10 9 8 9 13 14 14 14 14 15 14 15 16 17 17 18 18 18 19 18 18 18 18
7 11 2 4 2 4 4 8 6 8 7 8 5 5 4 7 5 10 5 13 14 13 11 9 11 12 10 10 10 10 13 13 13 14 13 14 14 14 14 16 18 17 18 18 18 18 18 17 16
8 6 2 3 3 5 4 5 10 8 4 3 4 3 6 5 10 9 7 16 12 10 11 10 10 12 11 9 11 10 13 13 13 14 12 12 14 15 17 17 18 17 17 18 18 17 17 16 14
4 2 3 2 9 6 6 9 12 7 3 6 2 8 7 3 8 8 8 18 12 10 13 9 10 11 11 10 12 11 13 12 14 13 13 13 14 14 16 16 17 18 17 17 17 17 16 16 15
4 0 2 3 9 6 5 7 11 6 6 4 4 6 7 5 8 13 7 14 11 11 11 9 10 12 12 13 11 11 13 12 13 13 12 12 13 16 15 14 17 17 15 16 16 16 16 15 13
3 2 2 4 8 7 4 5 8 6 8 4 2 8 5 7 11 11 7 11 9 13 10 9 9 9 11 13 12 13 11 11 13 12 11 12 11 12 12 15 17 15 14 14 15 15 15 14 12
3 2 6 5 8 5 5 4 6 7 8 5 4 7 6 7 8 7 8 10 10 13 10 8 8 9 10 11 11 12 12 11 11 11 11 11 11 11 12 14 15 13 13 12 13 13 13 12 10
3 5 2 2 3 4 6 4 6 8 5 3 5 5 6 11 9 5 5 7 13 10 10 9 8 8 8 6 11 10 10 10 11 11 11 10 10 10 10 11 13 11 11 11 10 10 10 10 7
3 3 5 2 4 3 7 6 2 0 6 1 4 5 15 18 13 6 4 3 8 10 9 9 7 7 9 9 8 9 9 10 9 7 10 10 5 6 8 9 11 9 9 9 7 6 6 5 5
4 3 4 2 8 4 7 6 8 5 8 5 8 11 16 16 13 10 7 8 4 2 12 9 8 6 8 8 8 7 7 6 6 6 6 3 5 5 7 6 9 8 7 6 4 3 4 5 3
4 5 4 3 7 3 6 4 2 5 7 8 13 14 15 16 13 12 8 8 8 6 5 8 9 6 7 7 4 4 3 3 4 7 6 6 5 4 4 3 2 3 5 3 3 2 1 5 4
3 8 5 6 2 2 5 6 4 5 5 5 9 16 15 14 16 13 13 10 13 12 6 8 8 5 6 6 4 5 4 4 4 4 4 5 4 5 5 4 5 5 3 3 2 2 1 2 2
8 7 4 7 4 2 5 4 0 6 4 10 6 14 15 14 14 10 12 12 9 13 10 6 9 5 6 5 4 5 5 5 5 5 5 5 4 4 4 4 4 3 2 3 2 3 2 2 1
9 7 7 4 6 3 1 3 3 8 7 7 7 11 12 13 15 13 13 12 12 11 13 10 10 10 7 6 5 5 5 5 5 5 5 6 4 4 3 4 4 4 3 3 3 3 2 2 1
6 9 8 8 7 3 5 6 8 8 6 7 9 7 9 12 14 16 13 11 12 9 10 13 8 14 10 8 4 3 3 6 5 5 7 7 5 6 5 4 4 4 3 4 3 2 1 1 2
11 7 7 12 10 5 6 2 8 12 9 10 8 10 10 9 11 10 9 10 10 12 13 11 10 10 13 11 7 5 4 3 5 5 5 7 6 6 5 5 5 4 4 3 3 3 3 3 4
15 6 7 4 15 7 8 2 4 3 3 8 8 8 11 10 10 9 11 11 11 14 13 14 14 9 11 9 6 6 6 5 4 5 5 7 7 6 6 5 5 6 4 3 3 2 2 2 3
9 7 7 12 10 9 9 9 5 3 3 4 6 8 7 10 12 10 11 10 11 13 14 13 12 13 9 9 7 5 5 5 4 4 5 8 6 7 6 5 6 6 5 4 3 4 2 1 0
12 12 12 6 9 6 8 9 10 10 10 10 8 8 8 7 10 11 12 11 10 11 15 15 16 16 11 9 10 8 8 6 6 5 8 8 9 8 6 5 5 5 5 5 5 4 4 3 2
10 12 13 5 9 3 5 12 8 9 9 10 10 10 10 8 7 9 10 10 11 12 14 15 15 15 12 10 9 7 9 7 8 7 7 8 9 10 8 6 6 6 4 6 6 5 3 3 4
5 6 5 5 6 0 4 11 12 11 17 11 10 10 11 10 9 9 10 12 11 13 13 15 17 18 16 15 9 6 5 4 6 6 5 7 8 8 11 10 8 8 5 6 7 7 7 5 3
13 7 4 9 6 3 6 6 7 6 5 15 13 9 9 10 9 9 11 11 14 14 11 14 15 16 17 17 12 14 11 11 9 9 7 7 7 7 11 11 9 9 7 6 7 6 5 3 5
6 7 8 5 2 5 5 3 7 7 7 9 10 11 11 10 10 11 10 13 15 14 15 12 13 13 14 15 16 12 11 10 8 9 11 12 10 11 12 12 12 10 7 8 7 6 6 6 4
8 11 8 6 1 6 9 7 5 6 9 7 6 8 8 9 10 10 10 10 9 9 10 11 11 14 14 14 17 17 17 13 10 11 11 10 10 11 14 14 12 11 10 9 9 10 10 8 6
10 14 3 1 2 7 5 6 11 7 2 1 4 2 5 3 2 6 6 6 7 9 11 11 14 15 14 16 16 19 18 17 16 14 12 12 10 9 14 14 13 10 11 11 9 9 10 10 9
14 11 7 8 7 4 1 8 7 9 2 2 7 7 2 4 3 2 4 3 7 9 8 9 9 14 14 15 17 17 18 12 12 13 12 10 11 12 13 14 14 14 12 10 10 7 7 7 7
15 13 3 7 2 4 6 7 8 8 8 5 6 4 6 7 2 1 1 3 3 5 8 8 8 9 9 13 13 14 14 16 14 16 12 10 11 10 12 14 14 13 11 11 10 8 8 9 8
13 10 5 1 7 6 5 6 8 4 8 10 7 8 6 6 6 3 2 2 1 3 4 7 8 9 8 8 9 12 15 14 15 12 13 12 10 8 10 11 12 10 10 11 11 7 7 8 5
7 11 5 6 4 6 1 7 7 12 11 10 8 8 8 6 3 1 3 2 2 2 4 5 6 7 8 8 7 7 11 13 12 13 12 12 8 10 12 12 11 13 13 12 11 8 11 11 9
4 9 6 6 5 2 4 8 6 5 7 11 9 8 6 2 1 2 4 4 4 6 6 7 7 8 8 7 6 7 6 5 7 11 11 9 8 7 9 10 11 11 11 12 12 12 10 12 12
Wind_Direction
309 281 272 314 331 218 119 83 89 105 113 96 32 28 85 35 19 113 170 122 123 126 110 122 120 111 103 94 98 106 107 97 95 91 86 85 84 82 84 85 82 78 79 76 71 70 69 68 69
317 308 258 274 255 283 82 118 114 83 83 80 77 336 70 83 68 115 102 113 107 119 132 122 122 115 110 98 100 103 101 104 101 98 94 92 84 83 88 92 80 86 78 76 73 72 73 74 71
282 286 310 326 282 12 72 90 95 87 106 131 114 32 21 89 123 139 132 108 119 105 102 111 110 118 112 92 103 97 89 85 93 89 101 102 98 89 83 83 90 80 83 77 73 73 76 74 67
334 266 268 255 274 72 53 95 107 118 57 338 32 83 83 351 152 111 158 112 107 114 103 108 109 109 114 99 94 101 99 106 95 99 96 98 96 86 78 75 83 91 83 77 74 74 78 71 61
238 253 284 294 273 101 67 100 139 160 135 131 343 78 97 48 96 121 111 115 124 108 112 115 102 108 122 110 104 111 106 105 105 95 104 113 91 78 88 85 87 86 85 80 77 76 78 71 60
286 291 221 237 269 87 81 137 146 125 119 102 140 102 84 130 138 117 134 124 127 119 117 121 99 94 117 105 99 105 99 98 112 107 104 107 100 100 93 88 86 89 90 85 80 79 79 73 66
261 193 249 248 273 131 124 158 155 135 139 146 118 109 119 125 95 151 125 127 117 115 128 129 120 97 100 113 100 95 102 103 116 113 112 106 115 75 82 97 91 91 89 88 87 85 83 80 67
265 175 188 287 301 146 130 160 360 47 53 87 16 139 167 145 145 184 114 133 126 123 138 138 130 135 117 105 103 100 100 109 100 95 97 99 110 111 93 88 97 97 95 91 88 89 89 86 71
285 276 194 205 324 72 146 138 26 324 122 79 66 59 123 140 156 146 150 89 123 148 142 143 157 153 136 127 118 109 109 109 112 132 148 147 153 121 78 85 97 101 99 97 96 101 109 121 126
220 235 258 221 172 169 180 187 141 169 128 125 96 102 123 144 154 163 167 133 129 189 148 157 151 158 148 142 155 143 144 154 162 169 186 229 83 114 107 111 114 116 117 122 135 176 187 204 223
200 237 224 64 67 117 173 137 40 213 172 157 162 147 146 160 170 165 171 153 158 196 157 161 146 167 147 133 182 150 174 178 159 171 203 125 113 123 130 133 146 152 178 180 188 223 4 27 30
205 229 316 105 99 74 177 122 181 258 132 89 81 150 148 169 181 175 178 185 164 176 207 159 147 176 160 150 171 156 174 149 166 172 169 130 158 182 162 174 183 181 183 172 186 88 98 113 87
210 238 166 116 137 221 47 190 9 215 157 118 104 150 161 167 185 198 189 185 169 168 174 215 158 173 192 167 186 163 163 159 172 167 179 172 167 180 171 151 166 179 153 171 164 148 178 149 96
191 233 143 157 173 133 217 204 137 232 122 122 153 166 168 172 184 194 194 195 172 169 170 194 176 172 182 205 213 163 157 173 167 163 187 203 165 173 173 158 167 158 180 175 163 170 183 179 168
268 158 161 192 165 200 181 266 227 248 154 178 171 200 180 182 183 195 191 188 174 177 166 189 198 172 180 189 207 211 184 173 168 175 178 200 176 172 172 171 179 181 173 159 128 146 185 216 196
244 191 180 189 167 185 166 227 235 211 219 224 212 187 181 196 193 186 186 179 179 169 180 180 195 183 173 185 185 213 211 214 173 179 171 181 198 180 180 168 181 170 153 185 190 189 204 208 189
220 176 205 197 177 134 189 228 262 243 262 217 203 232 177 182 193 189 187 185 187 177 181 179 180 206 183 170 181 199 203 222 206 176 172 183 188 191 177 179 187 159 173 191 195 219 185 205 213
163 183 201 206 174 200 185 235 263 177 169 241 258 263 245 182 188 191 188 190 186 182 182 181 178 193 182 169 177 209 187 189 229 207 177 178 185 188 185 189 171 163 179 185 186 187 207 182 286
170 172 216 231 131 156 234 240 241 224 195 202 218 258 261 226 185 185 189 185 189 186 183 191 184 187 186 176 185 195 193 194 201 212 194 183 180 185 189 171 166 178 180 189 187 180 195 221 216
230 177 195 108 95 132 271 276 266 250 233 194 197 214 228 235 213 189 182 182 196 195 190 195 189 186 189 192 191 196 196 199 201 205 195 187 181 183 179 173 181 189 184 194 190 174 174 208 172
213 188 216 145 112 332 302 281 238 229 232 231 220 210 214 219 221 196 182 188 189 200 200 199 196 187 191 191 189 194 195 185 194 201 200 199 190 185 183 186 184 190 198 190 196 176 181 181 213
199 193 73 109 105 208 147 283 318 304 231 219 227 225 221 219 231 220 193 184 193 205 201 207 206 195 195 188 191 200 199 202 202 201 194 195 193 186 184 190 192 194 195 201 197 184 182 152 175
204 152 105 87 330 321 234 269 266 222 248 237 204 204 214 215 214 224 221 197 195 189 197 202 206 208 200 193 197 198 204 207 197 197 190 191 199 202 199 196 195 194 193 198 178 181 182 194 162
121 102 79 61 71 256 213 213 230 225 222 217 208 204 207 206 216 217 216 195 197 190 190 194 200 211 210 205 201 201 207 205 201 203 197 197 194 198 207 204 198 195 194 195 192 193 192 196 186
137 138 97 156 187 225 56 210 229 283 270 111 333 160 148 235 254 214 230 212 198 187 191 195 200 211 207 209 206 207 211 209 209 206 205 199 199 197 203 198 196 195 195 197 185 186 196 187 191
184 160 146 187 186 210 53 239 251 218 316 163 205 228 243 336 169 254 266 288 216 196 192 195 202 215 212 208 214 214 213 214 215 215 213 206 205 206 200 202 202 201 189 186 183 189 189 180 174
192 207 96 98 359 61 193 254 292 247 256 225 240 263 238 225 172 152 106 234 271 205 211 205 213 221 219 216 216 220 217 215 218 218 218 217 207 202 195 197 200 198 183 172 170 185 172 169 161
189 150 124 172 161 232 242 232 224 109 218 241 237 229 256 174 121 99 67 57 266 226 211 214 214 228 240 238 225 217 217 215 216 217 219 222 216 192 187 189 193 177 166 161 159 163 151 144 142
155 181 197 127 195 168 117 256 198 213 200 200 167 123 89 108 115 273 137 147 213 241 250 244 250 240 238 230 235 237 222 222 217 215 213 211 198 191 189 183 173 176 171 167 162 167 159 147 140
207 170 184 172 204 241 105 262 143 92 99 105 116 125 128 183 256 162 197 211 243 236 231 231 234 237 234 235 234 236 249 239 226 223 221 219 208 166 159 161 168 174 175 168 161 153 164 153 152